Bedminster, NJ

10:48 PM EST on February 24, 2017 (GMT -0500)
Somerset

Weather History for KSMQ - March, 2015

Change the Weather History Date:

Wednesday, March 18, 2015

  Actual Average Record
Temperature  
Mean Temperature 35 °F -  
Max Temperature 42 °F 49 °F 79 °F (2011)
Min Temperature 27 °F 26 °F -1 °F (1967)
Degree Days  
Heating Degree Days 30    
Moisture  
Dew Point 8 °F    
Average Humidity 35    
Maximum Humidity 53    
Minimum Humidity 22    
Precipitation  
Precipitation 0.00 in - - ()
Sea Level Pressure  
Sea Level Pressure 30.06 in    
Wind  
Wind Speed 13 mph (NW)    
Max Wind Speed 24 mph    
Max Gust Speed 36 mph    
Visibility 10 miles    
Events      
Averages and records for this station are not official NWS values.
T = Trace of Precipitation, MM = Missing Value Source: NWS Daily Summary

Daily Weather History Graph

Daily Weather History Graph

Search for Another Location

Airport or City:

Trip Planner

Search our weather history database for the weather conditions in past years. The results will help you decide how hot, cold, wet, or windy it might be!

Date:

Astronomy

Mar. 18, 2015 Rise Set
Actual Time 7:05 AM EDT 7:08 PM EDT
Civil Twilight 6:38 AM EDT 7:35 PM EDT
Nautical Twilight 6:06 AM EDT 8:07 PM EDT
Astronomical Twilight 5:34 AM EDT 8:39 PM EDT
Moon 5:47 AM EDT (3/18) 5:20 PM EDT (3/18)
Length of Visible Light 12h 57m
Length of Day
12h 02m
Waning Crescent, 5% of the Moon is Illuminated
Mar 18
Waning Crescent
Mar 20
New
Mar 27
First Quarter
Apr 4
Full
Apr 11
Last Quarter

Hourly Weather History & Observations

Time (EDT) Temp. Windchill Dew Point Humidity Pressure Visibility Wind Dir Wind Speed Gust Speed Precip Events Conditions
12:53 AM 33.1 °F 24.9 °F 8.1 °F 35% 29.96 in 10.0 mi NW 10.4 mph 19.6 mph N/A   Clear
1:53 AM 33.1 °F 23.4 °F 7.0 °F 34% 29.97 in 10.0 mi WNW 13.8 mph 21.9 mph N/A   Clear
2:53 AM 32.0 °F 20.5 °F 6.1 °F 34% 29.99 in 10.0 mi NW 18.4 mph 27.6 mph N/A   Clear
3:53 AM 30.9 °F 22.8 °F 8.1 °F 38% 29.99 in 10.0 mi WNW 9.2 mph 20.7 mph N/A   Clear
4:53 AM 30.2 °F 18.5 °F 8.6 °F 40% 29.98 in 10.0 mi NW 17.3 mph 31.1 mph N/A   Clear
5:53 AM 30.0 °F 19.5 °F 9.0 °F 41% 30.01 in 10.0 mi NW 13.8 mph 20.7 mph N/A   Clear
6:53 AM 30.0 °F 21.7 °F 8.1 °F 40% 30.03 in 10.0 mi WNW 9.2 mph 20.7 mph N/A   Clear
7:53 AM 30.0 °F 20.5 °F 8.1 °F 40% 30.06 in 10.0 mi NW 11.5 mph 19.6 mph N/A   Clear
8:53 AM 32.0 °F 23.0 °F 9.0 °F 38% 30.06 in 10.0 mi WNW 11.5 mph 25.3 mph N/A   Clear
9:53 AM 33.1 °F 23.9 °F 8.1 °F 35% 30.08 in 10.0 mi NW 12.7 mph 27.6 mph N/A   Scattered Clouds
10:53 AM 35.1 °F 24.8 °F 9.0 °F 34% 30.08 in 10.0 mi NW 17.3 mph 29.9 mph N/A   Mostly Cloudy
11:53 AM 35.1 °F 25.9 °F 8.1 °F 33% 30.07 in 10.0 mi NW 13.8 mph 25.3 mph N/A   Scattered Clouds
12:53 PM 37.9 °F 28.5 °F 7.0 °F 28% 30.06 in 10.0 mi WNW 17.3 mph 33.4 mph N/A   Partly Cloudy
1:53 PM 39.0 °F 29.6 °F 7.0 °F 27% 30.05 in 10.0 mi WNW 18.4 mph 32.2 mph N/A   Partly Cloudy
2:53 PM 39.0 °F 28.3 °F 6.1 °F 26% 30.04 in 10.0 mi NW 24.2 mph 35.7 mph N/A   Clear
3:53 PM 41.0 °F 33.1 °F 5.0 °F 23% 30.03 in 10.0 mi NNW 15.0 mph 27.6 mph N/A   Clear
4:53 PM 42.1 °F 35.2 °F 5.0 °F 22% 30.02 in 10.0 mi NW 12.7 mph 24.2 mph N/A   Clear
5:53 PM 41.0 °F 33.9 °F 5.0 °F 23% 30.03 in 10.0 mi NW 12.7 mph 21.9 mph N/A   Clear
6:53 PM 37.9 °F 29.6 °F 6.1 °F 27% 30.07 in 10.0 mi NNW 13.8 mph 19.6 mph N/A   Clear
7:53 PM 37.0 °F 30.4 °F 7.0 °F 29% 30.10 in 10.0 mi NNW 9.2 mph - N/A   Clear
8:53 PM 34.0 °F 29.8 °F 9.0 °F 35% 30.14 in 10.0 mi North 4.6 mph - N/A   Clear
9:53 PM 30.9 °F 27.5 °F 10.0 °F 42% 30.16 in 10.0 mi North 3.5 mph - N/A   Clear
10:53 PM 28.0 °F 24.2 °F 12.9 °F 53% 30.18 in 10.0 mi North 3.5 mph - N/A   Clear
11:53 PM 27.0 °F 23.0 °F 12.0 °F 53% 30.19 in 10.0 mi North 3.5 mph - N/A   Clear